Time,TemperatureF,DewpointF,PressureIn,WindDirection,WindDirectionDegrees,WindSpeedMPH,WindSpeedGustMPH,Humidity,HourlyPrecipIn,Conditions,Clouds,dailyrainin,SoftwareType,DateUTC
2013-03-28 00:03:00,38.0,32.0,30.23,NW,312,0.0,-999.0,80,-99.99,,,-99.99,,2013-03-28 04:03:00,
2013-03-28 00:12:00,38.0,32.0,30.23,NW,312,0.0,-999.0,80,-99.99,,,-99.99,,2013-03-28 04:12:00,
2013-03-28 00:23:00,38.0,33.0,30.23,NW,312,0.0,-999.0,81,-99.99,,,-99.99,,2013-03-28 04:23:00,
2013-03-28 00:32:00,37.0,32.0,30.23,NW,312,0.0,-999.0,82,-99.99,,,-99.99,,2013-03-28 04:32:00,
2013-03-28 00:42:00,37.0,32.0,30.23,NW,312,0.0,-999.0,82,-99.99,,,-99.99,,2013-03-28 04:42:00,
2013-03-28 00:52:00,37.0,32.0,30.23,NW,312,0.0,-999.0,82,-99.99,,,-99.99,,2013-03-28 04:52:00,
2013-03-28 01:02:00,37.0,33.0,30.23,NW,312,0.0,-999.0,84,-99.99,,,-99.99,,2013-03-28 05:02:00,
2013-03-28 01:12:00,37.0,33.0,30.23,NW,312,0.0,-999.0,84,-99.99,,,-99.99,,2013-03-28 05:12:00,
2013-03-28 01:22:00,36.0,32.0,30.23,NW,312,0.0,-999.0,84,-99.99,,,-99.99,,2013-03-28 05:22:00,
2013-03-28 01:32:00,37.0,33.0,30.24,NW,312,0.0,-999.0,85,-99.99,,,-99.99,,2013-03-28 05:32:00,
2013-03-28 01:42:00,37.0,33.0,30.24,NW,312,0.0,-999.0,85,-99.99,,,-99.99,,2013-03-28 05:42:00,
2013-03-28 01:52:00,36.0,32.0,30.24,NW,312,0.0,-999.0,85,-99.99,,,-99.99,,2013-03-28 05:52:00,
2013-03-28 02:02:00,36.0,31.0,30.24,NW,312,0.0,-999.0,83,-99.99,,,-99.99,,2013-03-28 06:02:00,
2013-03-28 02:12:00,36.0,31.0,30.24,NW,312,0.0,-999.0,83,-99.99,,,-99.99,,2013-03-28 06:12:00,
2013-03-28 02:22:00,36.0,30.0,30.24,NW,312,0.0,-999.0,80,-99.99,,,-99.99,,2013-03-28 06:22:00,
2013-03-28 02:32:00,35.0,29.0,30.24,NW,312,0.0,-999.0,80,-99.99,,,-99.99,,2013-03-28 06:32:00,
2013-03-28 02:42:00,35.0,29.0,30.24,NW,312,0.0,-999.0,80,-99.99,,,-99.99,,2013-03-28 06:42:00,
2013-03-28 02:52:00,35.0,30.0,30.24,NW,312,0.0,-999.0,81,-99.99,,,-99.99,,2013-03-28 06:52:00,
2013-03-28 03:02:00,35.0,29.0,30.24,NW,312,0.0,-999.0,79,-99.99,,,-99.99,,2013-03-28 07:02:00,
2013-03-28 03:12:00,35.0,29.0,30.24,NW,312,0.0,-999.0,79,-99.99,,,-99.99,,2013-03-28 07:12:00,
2013-03-28 03:22:00,36.0,29.0,30.24,NW,312,0.0,-999.0,74,-99.99,,,-99.99,,2013-03-28 07:22:00,
2013-03-28 03:32:00,36.0,28.0,30.24,NW,312,0.0,-999.0,72,-99.99,,,-99.99,,2013-03-28 07:32:00,
2013-03-28 03:42:00,36.0,28.0,30.24,NW,312,0.0,-999.0,72,-99.99,,,-99.99,,2013-03-28 07:42:00,
2013-03-28 03:52:00,36.0,29.0,30.24,NW,312,0.0,-999.0,74,-99.99,,,-99.99,,2013-03-28 07:52:00,
2013-03-28 04:02:00,35.0,29.0,30.24,NW,312,0.0,-999.0,77,-99.99,,,-99.99,,2013-03-28 08:02:00,
2013-03-28 04:12:00,35.0,29.0,30.24,NW,312,0.0,-999.0,77,-99.99,,,-99.99,,2013-03-28 08:12:00,
2013-03-28 04:21:00,34.0,28.0,30.24,NW,312,0.0,-999.0,80,-99.99,,,-99.99,,2013-03-28 08:21:00,
2013-03-28 04:33:00,34.0,28.0,30.23,NW,312,0.0,-999.0,79,-99.99,,,-99.99,,2013-03-28 08:33:00,
2013-03-28 04:42:00,34.0,28.0,30.23,NW,312,0.0,-999.0,79,-99.99,,,-99.99,,2013-03-28 08:42:00,
2013-03-28 04:52:00,34.0,29.0,30.23,NW,312,0.0,-999.0,82,-99.99,,,-99.99,,2013-03-28 08:52:00,
2013-03-28 05:02:00,34.0,29.0,30.23,NW,312,0.0,-999.0,82,-99.99,,,-99.99,,2013-03-28 09:02:00,
2013-03-28 05:12:00,34.0,29.0,30.23,NW,312,0.0,-999.0,82,-99.99,,,-99.99,,2013-03-28 09:12:00,
2013-03-28 05:22:00,34.0,28.0,30.24,NW,312,0.0,-999.0,78,-99.99,,,-99.99,,2013-03-28 09:22:00,
2013-03-28 05:32:00,34.0,27.0,30.24,NW,312,0.0,-999.0,75,-99.99,,,-99.99,,2013-03-28 09:32:00,
2013-03-28 05:42:00,35.0,27.0,30.24,NW,312,0.0,-999.0,72,-99.99,,,-99.99,,2013-03-28 09:42:00,
2013-03-28 05:52:00,35.0,27.0,30.24,NW,312,0.0,-999.0,72,-99.99,,,-99.99,,2013-03-28 09:52:00,
2013-03-28 06:03:00,35.0,26.0,30.24,NW,312,0.0,-999.0,70,-99.99,,,-99.99,,2013-03-28 10:03:00,
2013-03-28 06:12:00,35.0,26.0,30.24,NW,312,0.0,-999.0,70,-99.99,,,-99.99,,2013-03-28 10:12:00,
2013-03-28 06:22:00,35.0,27.0,30.24,NW,312,0.0,-999.0,71,-99.99,,,-99.99,,2013-03-28 10:22:00,
2013-03-28 06:33:00,34.0,27.0,30.24,NW,312,0.0,-999.0,75,-99.99,,,-99.99,,2013-03-28 10:33:00,
2013-03-28 06:42:00,34.0,27.0,30.24,NW,312,0.0,-999.0,75,-99.99,,,-99.99,,2013-03-28 10:42:00,
2013-03-28 06:53:00,33.0,27.0,30.24,NW,312,0.0,-999.0,79,-99.99,,,-99.99,,2013-03-28 10:53:00,
2013-03-28 07:02:00,32.0,27.0,30.25,NW,312,0.0,-999.0,81,-99.99,,,-99.99,,2013-03-28 11:02:00,
2013-03-28 07:12:00,32.0,27.0,30.25,NW,312,0.0,-999.0,81,-99.99,,,-99.99,,2013-03-28 11:12:00,
2013-03-28 07:23:00,32.0,27.0,30.25,NW,312,0.0,-999.0,82,-99.99,,,-99.99,,2013-03-28 11:23:00,
2013-03-28 07:32:00,31.0,26.0,30.26,NW,312,0.0,-999.0,83,-99.99,,,-99.99,,2013-03-28 11:32:00,
2013-03-28 07:42:00,31.0,26.0,30.26,NW,312,0.0,-999.0,83,-99.99,,,-99.99,,2013-03-28 11:42:00,
2013-03-28 07:52:00,31.0,26.0,30.26,NW,312,0.0,-999.0,83,-99.99,,,-99.99,,2013-03-28 11:52:00,
2013-03-28 08:02:00,31.0,26.0,30.26,NW,312,0.0,-999.0,83,-99.99,,,-99.99,,2013-03-28 12:02:00,
2013-03-28 08:12:00,31.0,26.0,30.26,NW,312,0.0,-999.0,83,-99.99,,,-99.99,,2013-03-28 12:12:00,
2013-03-28 08:22:00,31.0,26.0,30.26,NW,312,0.0,-999.0,83,-99.99,,,-99.99,,2013-03-28 12:22:00,
2013-03-28 08:32:00,34.0,28.0,30.27,NW,312,0.0,-999.0,78,-99.99,,,-99.99,,2013-03-28 12:32:00,
2013-03-28 08:42:00,34.0,28.0,30.27,NW,312,0.0,-999.0,78,-99.99,,,-99.99,,2013-03-28 12:42:00,
2013-03-28 08:52:00,36.0,27.0,30.27,NW,312,0.0,-999.0,70,-99.99,,,-99.99,,2013-03-28 12:52:00,
2013-03-28 09:02:00,39.0,27.0,30.28,North,0,1.0,-999.0,62,-99.99,,,-99.99,,2013-03-28 13:02:00,
2013-03-28 09:12:00,39.0,27.0,30.28,North,0,1.0,-999.0,62,-99.99,,,-99.99,,2013-03-28 13:12:00,
2013-03-28 09:22:00,41.0,26.0,30.28,North,0,3.0,-999.0,55,-99.99,,,-99.99,,2013-03-28 13:22:00,
2013-03-28 09:32:00,42.0,26.0,30.28,North,353,4.0,-999.0,52,-99.99,,,-99.99,,2013-03-28 13:32:00,
2013-03-28 09:42:00,42.0,26.0,30.28,North,353,4.0,-999.0,52,-99.99,,,-99.99,,2013-03-28 13:42:00,
2013-03-28 09:52:00,43.0,25.0,30.28,North,352,5.0,-999.0,49,-99.99,,,-99.99,,2013-03-28 13:52:00,
2013-03-28 10:02:00,45.0,26.0,30.28,NNE,14,3.0,-999.0,47,-99.99,,,-99.99,,2013-03-28 14:02:00,
2013-03-28 10:12:00,45.0,26.0,30.28,NNE,14,3.0,-999.0,47,-99.99,,,-99.99,,2013-03-28 14:12:00,
2013-03-28 10:22:00,46.0,25.0,30.28,North,359,4.0,-999.0,44,-99.99,,,-99.99,,2013-03-28 14:22:00,
2013-03-28 10:32:00,47.0,25.0,30.27,NNW,344,3.0,-999.0,41,-99.99,,,-99.99,,2013-03-28 14:32:00,
2013-03-28 10:42:00,47.0,25.0,30.27,NNW,344,3.0,-999.0,41,-99.99,,,-99.99,,2013-03-28 14:42:00,
2013-03-28 10:52:00,47.0,25.0,30.28,NNE,28,3.0,-999.0,41,-99.99,,,-99.99,,2013-03-28 14:52:00,
2013-03-28 11:02:00,48.0,25.0,30.28,WNW,299,3.0,-999.0,40,-99.99,,,-99.99,,2013-03-28 15:02:00,
2013-03-28 11:12:00,48.0,25.0,30.28,WNW,299,3.0,-999.0,40,-99.99,,,-99.99,,2013-03-28 15:12:00,
2013-03-28 11:22:00,49.0,26.0,30.28,NW,311,3.0,-999.0,40,-99.99,,,-99.99,,2013-03-28 15:22:00,
2013-03-28 11:33:00,49.0,24.0,30.28,NNW,328,3.0,-999.0,37,-99.99,,,-99.99,,2013-03-28 15:33:00,
2013-03-28 11:43:00,49.0,24.0,30.28,NNW,328,3.0,-999.0,37,-99.99,,,-99.99,,2013-03-28 15:43:00,
2013-03-28 11:53:00,49.0,24.0,30.28,NNW,328,3.0,-999.0,37,-99.99,,,-99.99,,2013-03-28 15:53:00,
2013-03-28 12:02:00,50.0,22.0,30.27,NNW,340,4.0,-999.0,33,-99.99,,,-99.99,,2013-03-28 16:02:00,
2013-03-28 12:12:00,50.0,22.0,30.27,NNW,340,4.0,-999.0,33,-99.99,,,-99.99,,2013-03-28 16:12:00,
2013-03-28 12:23:00,50.0,21.0,30.27,NW,323,4.0,-999.0,32,-99.99,,,-99.99,,2013-03-28 16:23:00,
2013-03-28 12:32:00,51.0,23.0,30.26,North,349,3.0,-999.0,33,-99.99,,,-99.99,,2013-03-28 16:32:00,
2013-03-28 12:42:00,51.0,23.0,30.26,North,349,3.0,-999.0,33,-99.99,,,-99.99,,2013-03-28 16:42:00,
2013-03-28 12:52:00,51.0,22.0,30.26,NNW,328,4.0,-999.0,32,-99.99,,,-99.99,,2013-03-28 16:52:00,
2013-03-28 13:02:00,52.0,21.0,30.25,West,274,5.0,-999.0,29,-99.99,,,-99.99,,2013-03-28 17:02:00,
2013-03-28 13:12:00,52.0,21.0,30.25,West,274,5.0,-999.0,29,-99.99,,,-99.99,,2013-03-28 17:12:00,
2013-03-28 13:22:00,52.0,22.0,30.24,NW,319,5.0,-999.0,30,-99.99,,,-99.99,,2013-03-28 17:22:00,
2013-03-28 13:32:00,53.0,22.0,30.24,NW,316,4.0,-999.0,30,-99.99,,,-99.99,,2013-03-28 17:32:00,
2013-03-28 13:42:00,53.0,22.0,30.24,NW,316,4.0,-999.0,30,-99.99,,,-99.99,,2013-03-28 17:42:00,
2013-03-28 13:52:00,53.0,22.0,30.23,North,0,4.0,-999.0,30,-99.99,,,-99.99,,2013-03-28 17:52:00,
2013-03-28 14:02:00,53.0,22.0,30.23,NW,308,5.0,-999.0,30,-99.99,,,-99.99,,2013-03-28 18:02:00,
2013-03-28 14:12:00,53.0,22.0,30.23,NW,308,5.0,-999.0,30,-99.99,,,-99.99,,2013-03-28 18:12:00,
2013-03-28 14:22:00,53.0,21.0,30.23,NNW,342,7.0,-999.0,28,-99.99,,,-99.99,,2013-03-28 18:22:00,
2013-03-28 14:32:00,55.0,23.0,30.22,North,0,4.0,-999.0,29,-99.99,,,-99.99,,2013-03-28 18:32:00,
2013-03-28 14:42:00,55.0,23.0,30.22,North,0,4.0,-999.0,29,-99.99,,,-99.99,,2013-03-28 18:42:00,
2013-03-28 14:52:00,55.0,22.0,30.21,NW,313,5.0,-999.0,27,-99.99,,,-99.99,,2013-03-28 18:52:00,
2013-03-28 15:02:00,55.0,23.0,30.20,WNW,301,5.0,-999.0,28,-99.99,,,-99.99,,2013-03-28 19:02:00,
2013-03-28 15:12:00,55.0,23.0,30.20,WNW,301,5.0,-999.0,28,-99.99,,,-99.99,,2013-03-28 19:12:00,
2013-03-28 15:22:00,56.0,23.0,30.20,NW,322,4.0,-999.0,27,-99.99,,,-99.99,,2013-03-28 19:22:00,
2013-03-28 15:33:00,56.0,22.0,30.19,WNW,287,5.0,-999.0,26,-99.99,,,-99.99,,2013-03-28 19:33:00,
2013-03-28 15:42:00,56.0,22.0,30.19,WNW,287,5.0,-999.0,26,-99.99,,,-99.99,,2013-03-28 19:42:00,
2013-03-28 15:52:00,56.0,23.0,30.19,North,353,5.0,-999.0,27,-99.99,,,-99.99,,2013-03-28 19:52:00,
2013-03-28 16:03:00,56.0,23.0,30.18,WNW,296,5.0,-999.0,27,-99.99,,,-99.99,,2013-03-28 20:03:00,
2013-03-28 16:12:00,56.0,23.0,30.18,WNW,296,5.0,-999.0,27,-99.99,,,-99.99,,2013-03-28 20:12:00,
2013-03-28 16:22:00,57.0,22.0,30.18,North,356,5.0,-999.0,26,-99.99,,,-99.99,,2013-03-28 20:22:00,
2013-03-28 16:32:00,57.0,22.0,30.18,North,356,5.0,-999.0,26,-99.99,,,-99.99,,2013-03-28 20:32:00,
2013-03-28 16:42:00,57.0,22.0,30.18,North,356,5.0,-999.0,26,-99.99,,,-99.99,,2013-03-28 20:42:00,
2013-03-28 16:53:00,57.0,22.0,30.18,West,270,4.0,-999.0,26,-99.99,,,-99.99,,2013-03-28 20:53:00,
2013-03-28 17:02:00,57.0,23.0,30.18,WSW,248,5.0,-999.0,27,-99.99,,,-99.99,,2013-03-28 21:02:00,
2013-03-28 17:12:00,57.0,23.0,30.18,WSW,248,5.0,-999.0,27,-99.99,,,-99.99,,2013-03-28 21:12:00,
2013-03-28 17:22:00,57.0,22.0,30.18,West,277,6.0,-999.0,25,-99.99,,,-99.99,,2013-03-28 21:22:00,
2013-03-28 17:33:00,57.0,22.0,30.17,NW,313,6.0,-999.0,25,-99.99,,,-99.99,,2013-03-28 21:33:00,
2013-03-28 17:43:00,57.0,22.0,30.17,NW,313,6.0,-999.0,25,-99.99,,,-99.99,,2013-03-28 21:43:00,
2013-03-28 17:53:00,57.0,22.0,30.18,NNW,339,5.0,-999.0,25,-99.99,,,-99.99,,2013-03-28 21:53:00,
2013-03-28 18:03:00,57.0,21.0,30.18,NNW,330,5.0,-999.0,24,-99.99,,,-99.99,,2013-03-28 22:03:00,
2013-03-28 18:13:00,57.0,21.0,30.18,NNW,330,5.0,-999.0,24,-99.99,,,-99.99,,2013-03-28 22:13:00,
2013-03-28 18:22:00,57.0,22.0,30.17,NNW,336,6.0,-999.0,25,-99.99,,,-99.99,,2013-03-28 22:22:00,
2013-03-28 18:32:00,57.0,22.0,30.17,North,353,4.0,-999.0,26,-99.99,,,-99.99,,2013-03-28 22:32:00,
2013-03-28 18:42:00,57.0,22.0,30.17,North,353,4.0,-999.0,26,-99.99,,,-99.99,,2013-03-28 22:42:00,
2013-03-28 18:52:00,57.0,22.0,30.18,NNW,333,4.0,-999.0,25,-99.99,,,-99.99,,2013-03-28 22:52:00,
2013-03-28 19:03:00,57.0,22.0,30.18,NW,311,3.0,-999.0,26,-99.99,,,-99.99,,2013-03-28 23:03:00,
2013-03-28 19:12:00,57.0,22.0,30.18,NW,311,3.0,-999.0,26,-99.99,,,-99.99,,2013-03-28 23:12:00,
2013-03-28 19:22:00,57.0,23.0,30.18,NNW,343,3.0,-999.0,27,-99.99,,,-99.99,,2013-03-28 23:22:00,
2013-03-28 19:32:00,56.0,23.0,30.19,NW,308,1.0,-999.0,28,-99.99,,,-99.99,,2013-03-28 23:32:00,
2013-03-28 19:42:00,56.0,23.0,30.19,NW,308,1.0,-999.0,28,-99.99,,,-99.99,,2013-03-28 23:42:00,
2013-03-28 19:52:00,55.0,23.0,30.19,NW,311,1.0,-999.0,28,-99.99,,,-99.99,,2013-03-28 23:52:00,
2013-03-28 20:02:00,55.0,23.0,30.19,NW,311,1.0,-999.0,28,-99.99,,,-99.99,,2013-03-29 00:02:00,
2013-03-28 20:12:00,55.0,23.0,30.19,NW,311,1.0,-999.0,28,-99.99,,,-99.99,,2013-03-29 00:12:00,
2013-03-28 20:22:00,53.0,27.0,30.21,NW,323,0.0,-999.0,36,-99.99,,,-99.99,,2013-03-29 00:22:00,
2013-03-28 20:32:00,52.0,26.0,30.22,NW,323,0.0,-999.0,36,-99.99,,,-99.99,,2013-03-29 00:32:00,
2013-03-28 20:42:00,52.0,26.0,30.22,NW,323,0.0,-999.0,36,-99.99,,,-99.99,,2013-03-29 00:42:00,
2013-03-28 20:52:00,51.0,26.0,30.22,NW,323,0.0,-999.0,37,-99.99,,,-99.99,,2013-03-29 00:52:00,
2013-03-28 21:02:00,51.0,26.0,30.22,NW,323,0.0,-999.0,37,-99.99,,,-99.99,,2013-03-29 01:02:00,
2013-03-28 21:12:00,51.0,26.0,30.22,NW,323,0.0,-999.0,37,-99.99,,,-99.99,,2013-03-29 01:12:00,
2013-03-28 21:22:00,48.0,29.0,30.24,NW,323,0.0,-999.0,48,-99.99,,,-99.99,,2013-03-29 01:22:00,
2013-03-28 21:33:00,47.0,33.0,30.24,NW,323,0.0,-999.0,59,-99.99,,,-99.99,,2013-03-29 01:33:00,
2013-03-28 21:42:00,47.0,33.0,30.24,NW,323,0.0,-999.0,59,-99.99,,,-99.99,,2013-03-29 01:42:00,
2013-03-28 21:52:00,45.0,29.0,30.24,NW,323,0.0,-999.0,54,-99.99,,,-99.99,,2013-03-29 01:52:00,
2013-03-28 22:02:00,44.0,30.0,30.25,NW,323,0.0,-999.0,57,-99.99,,,-99.99,,2013-03-29 02:02:00,
2013-03-28 22:12:00,44.0,30.0,30.25,NW,323,0.0,-999.0,57,-99.99,,,-99.99,,2013-03-29 02:12:00,
2013-03-28 22:22:00,43.0,31.0,30.26,NW,323,0.0,-999.0,63,-99.99,,,-99.99,,2013-03-29 02:22:00,
2013-03-28 22:32:00,42.0,31.0,30.26,NW,323,0.0,-999.0,65,-99.99,,,-99.99,,2013-03-29 02:32:00,
2013-03-28 22:42:00,42.0,31.0,30.26,NW,323,0.0,-999.0,65,-99.99,,,-99.99,,2013-03-29 02:42:00,
2013-03-28 22:52:00,41.0,31.0,30.27,NW,323,0.0,-999.0,67,-99.99,,,-99.99,,2013-03-29 02:52:00,
2013-03-28 23:02:00,41.0,33.0,30.27,NW,323,0.0,-999.0,73,-99.99,,,-99.99,,2013-03-29 03:02:00,
2013-03-28 23:12:00,41.0,33.0,30.27,NW,323,0.0,-999.0,73,-99.99,,,-99.99,,2013-03-29 03:12:00,
2013-03-28 23:22:00,40.0,33.0,30.27,NW,323,0.0,-999.0,75,-99.99,,,-99.99,,2013-03-29 03:22:00,
2013-03-28 23:32:00,40.0,33.0,30.28,NW,323,0.0,-999.0,77,-99.99,,,-99.99,,2013-03-29 03:32:00,
2013-03-28 23:43:00,40.0,33.0,30.28,NW,323,0.0,-999.0,77,-99.99,,,-99.99,,2013-03-29 03:43:00,
2013-03-28 23:53:00,39.0,32.0,30.28,NW,323,0.0,-999.0,77,-99.99,,,-99.99,,2013-03-29 03:53:00,